Weather History for Marianna, FL

Change the Weather History Date:

Monday, June 17, 2013

  Actual Average (KDHN) Record (KDHN)
Temperature  
Mean Temperature 83 °F -  
Max Temperature 91 °F 88 °F 100 °F (1944)
Min Temperature 74 °F 70 °F 62 °F (1961)
Cooling Degree Days 16    
Growing Degree Days 32 (Base 50)    
Moisture  
Dew Point 73 °F    
Average Humidity 79    
Maximum Humidity 100    
Minimum Humidity 53    
Precipitation  
Precipitation 0.13 in - - ()
Month to date precipitation 2.20  
Year to date precipitation 23.10  
Sea Level Pressure  
Sea Level Pressure 30.01 in    
Wind  
Wind Speed 5 mph (SSW)    
Max Wind Speed 16 mph    
Max Gust Speed 18 mph    
Visibility 9 miles    
Events Rain , Thunderstorm    
Averages and records for this station are not official NWS values.
T = Trace of Precipitation, MM = Missing Value Source: NWS Daily Summary

Daily Weather History Graph

Daily Weather History Graph

Search for Another Location

Airport:

Trip Planner

Search our weather history database for the weather conditions in past years. The results will help you decide how hot, cold, wet, or windy it might be!

Date:

Astronomy

Jun. 17, 2013 Rise Set
Actual Time 5:37 AM CDT 7:46 PM CDT
Civil Twilight 5:09 AM CDT 8:13 PM CDT
Nautical Twilight 4:35 AM CDT 8:47 PM CDT
Astronomical Twilight 3:59 AM CDT 9:24 PM CDT
Moon 1:43 PM CDT (6/17) 12:51 AM CDT (6/17)
Length of Visible Light 15h 04m
Length of Day
14h 08m
First Quarter, 60% of the Moon is Illuminated
Jun 17
First Quarter
Jun 23
Full
Jun 29
Last Quarter
Jul 8
New
Jul 15
First Quarter

Hourly Weather History & Observations

Time (CDT) Temp. Heat Index Dew Point Humidity Pressure Visibility Wind Dir Wind Speed Gust Speed Precip Events Conditions
12:53 AM 77.0 °F - 73.9 °F 90% 30.02 in 10.0 mi SSE 3.5 mph - N/A   Clear
1:53 AM 75.0 °F - 73.0 °F 94% 30.02 in 8.0 mi South 3.5 mph - N/A   Clear
2:53 AM 75.9 °F - 73.9 °F 94% 30.02 in 9.0 mi South 4.6 mph - N/A   Clear
3:53 AM 75.0 °F - 73.0 °F 94% 30.02 in 8.0 mi Calm Calm - N/A   Clear
4:53 AM 73.9 °F - 73.0 °F 97% 30.03 in 7.0 mi SSE 4.6 mph - N/A   Clear
5:40 AM 73.4 °F - 73.4 °F 100% 30.04 in 6.0 mi South 4.6 mph - N/A   Mostly Cloudy
5:53 AM 73.9 °F - 73.0 °F 97% 30.03 in 6.0 mi South 3.5 mph - N/A   Mostly Cloudy
6:02 AM 73.4 °F - 73.4 °F 100% 30.04 in 6.0 mi South 3.5 mph - N/A   Scattered Clouds
6:53 AM 75.9 °F - 73.0 °F 91% 30.04 in 8.0 mi Calm Calm - N/A   Clear
7:53 AM 79.0 °F - 75.0 °F 88% 30.04 in 10.0 mi SSW 6.9 mph - N/A   Clear
8:53 AM 82.0 °F 88.6 °F 75.0 °F 79% 30.03 in 10.0 mi SSW 5.8 mph - N/A   Partly Cloudy
9:49 AM 82.4 °F 87.2 °F 71.6 °F 70% 30.03 in 10.0 mi SW 8.1 mph - N/A   Mostly Cloudy
9:53 AM 84.0 °F 89.6 °F 72.0 °F 67% 30.02 in 10.0 mi SSW 9.2 mph - N/A   Scattered Clouds
10:53 AM 87.1 °F 93.6 °F 72.0 °F 61% 30.03 in 10.0 mi South 9.2 mph - N/A   Scattered Clouds
11:53 AM 88.0 °F 93.8 °F 71.1 °F 57% 30.01 in 10.0 mi SSW 10.4 mph - N/A   Scattered Clouds
12:53 PM 90.0 °F 96.4 °F 71.1 °F 54% 30.01 in 10.0 mi SSW 10.4 mph 18.4 mph N/A   Partly Cloudy
1:53 PM 88.0 °F 92.1 °F 69.1 °F 53% 30.00 in 10.0 mi SW 8.1 mph - N/A   Mostly Cloudy
2:08 PM 80.6 °F 86.2 °F 75.2 °F 84% 30.00 in 2.5 mi NW 11.5 mph - 0.12 in Rain Light Rain
2:15 PM 80.6 °F 86.2 °F 75.2 °F 84% 30.00 in 10.0 mi West 6.9 mph - 0.12 in Rain Light Rain
2:53 PM 84.9 °F 95.3 °F 77.0 °F 77% 29.97 in 10.0 mi NW 4.6 mph - 0.13 in   Scattered Clouds
3:53 PM 86.0 °F 95.1 °F 75.0 °F 70% 29.95 in 10.0 mi West 4.6 mph - N/A   Overcast
4:06 PM 86.0 °F 95.1 °F 75.2 °F 70% 29.95 in 10.0 mi West 4.6 mph - N/A Thunderstorm Overcast
4:53 PM 89.1 °F 96.0 °F 72.0 °F 57% 29.96 in 10.0 mi SW 16.1 mph - N/A   Mostly Cloudy
5:53 PM 86.0 °F 92.2 °F 72.0 °F 63% 29.96 in 10.0 mi West 10.4 mph - N/A   Mostly Cloudy
6:53 PM 84.0 °F 89.0 °F 71.1 °F 65% 29.98 in 10.0 mi SW 9.2 mph - N/A   Clear
7:53 PM 81.0 °F 85.2 °F 72.0 °F 74% 29.98 in 10.0 mi SW 4.6 mph - N/A   Clear
8:53 PM 80.1 °F 84.2 °F 73.0 °F 79% 30.01 in 10.0 mi Calm Calm - N/A   Partly Cloudy
9:53 PM 79.0 °F - 73.0 °F 82% 29.99 in 10.0 mi South 9.2 mph - N/A   Clear
10:53 PM 78.1 °F - 73.0 °F 84% 29.99 in 10.0 mi SW 6.9 mph - N/A   Clear
11:53 PM 77.0 °F - 73.0 °F 88% 29.99 in 10.0 mi SW 3.5 mph - N/A   Clear